Los Alamitos, CA

8:26 PM PDT on July 23, 2017 (GMT -0700)
Los Alamitos Army Air Field

Weather History for KSLI - September, 2013

Change the Weather History Date:

Wednesday, September 18, 2013

  Actual Average Record
Temperature  
Mean Temperature 68 °F -  
Max Temperature 75 °F 79 °F 89 °F (1997)
Min Temperature 62 °F 64 °F 55 °F (2010)
Cooling Degree Days 3    
Growing Degree Days 18 (Base 50)    
Moisture  
Dew Point 60 °F    
Average Humidity 80    
Maximum Humidity 100    
Minimum Humidity 48    
Precipitation  
Precipitation 0.00 in - - ()
Sea Level Pressure  
Sea Level Pressure 29.79 in    
Wind  
Wind Speed 5 mph (SSE)    
Max Wind Speed 10 mph    
Max Gust Speed -    
Visibility 10 miles    
Events      
Averages and records for this station are not official NWS values.
T = Trace of Precipitation, MM = Missing Value Source: NWS Daily Summary

Daily Weather History Graph

Daily Weather History Graph

Search for Another Location

Airport or City:

Trip Planner

Search our weather history database for the weather conditions in past years. The results will help you decide how hot, cold, wet, or windy it might be!

Date:

Astronomy

Sep. 18, 2013 Rise Set
Actual Time 6:37 AM PDT 6:54 PM PDT
Civil Twilight 6:12 AM PDT 7:18 PM PDT
Nautical Twilight 5:43 AM PDT 7:48 PM PDT
Astronomical Twilight 5:14 AM PDT 8:17 PM PDT
Moon 6:21 PM PDT (9/18) 5:46 AM PDT (9/18)
Length of Visible Light 13h 06m
Length of Day
12h 16m
Waxing Gibbous, 99% of the Moon is Illuminated
Sep 18
Waxing Gibbous
Sep 19
Full
Sep 26
Last Quarter
Oct 4
New
Oct 11
First Quarter

Hourly Weather History & Observations

Time (PDT) Temp. Dew Point Humidity Pressure Visibility Wind Dir Wind Speed Gust Speed Precip Events Conditions
12:08 AM 62.6 °F 62.6 °F 100% 29.78 in 10.0 mi Variable 1.2 mph - N/A   Overcast
12:43 AM 64.4 °F 64.4 °F 100% 29.78 in 10.0 mi SSE 4.6 mph - N/A   Overcast
12:58 AM 64.4 °F 64.4 °F 100% 29.79 in 10.0 mi SE 3.5 mph - N/A   Overcast
1:58 AM 64.8 °F 63.9 °F 97% 29.78 in 10.0 mi East 6.9 mph - N/A   Overcast
2:48 AM 64.4 °F 62.6 °F 94% 29.76 in 10.0 mi East 6.9 mph - N/A   Overcast
2:58 AM 64.9 °F 63.0 °F 93% 29.77 in 10.0 mi Variable 4.6 mph - N/A   Overcast
3:58 AM 64.9 °F 62.6 °F 92% 29.77 in 10.0 mi ESE 3.5 mph - N/A   Overcast
4:58 AM 64.6 °F 61.9 °F 91% 29.77 in 10.0 mi East 6.9 mph - N/A   Overcast
5:58 AM 64.6 °F 61.0 °F 88% 29.78 in 10.0 mi NE 1.2 mph - N/A   Overcast
6:43 AM 64.4 °F 60.8 °F 88% 29.78 in 10.0 mi East 2.3 mph - N/A   Overcast
6:58 AM 64.9 °F 60.3 °F 85% 29.80 in 10.0 mi NE 2.3 mph - N/A   Mostly Cloudy
7:58 AM 65.8 °F 58.6 °F 78% 29.81 in 10.0 mi East 5.8 mph - N/A   Mostly Cloudy
8:58 AM 67.5 °F 55.6 °F 66% 29.82 in 10.0 mi SSE 3.5 mph - N/A   Mostly Cloudy
9:23 AM 68.0 °F 55.4 °F 64% 29.81 in 10.0 mi Variable 3.5 mph - N/A   Scattered Clouds
9:58 AM 69.6 °F 54.1 °F 58% 29.82 in 10.0 mi Variable 2.3 mph - N/A   Partly Cloudy
10:58 AM 72.3 °F 54.1 °F 53% 29.82 in 10.0 mi WSW 10.4 mph - N/A   Partly Cloudy
11:58 AM 72.9 °F 53.6 °F 51% 29.81 in 10.0 mi SSW 10.4 mph - N/A   Clear
12:58 PM 73.4 °F 53.6 °F 50% 29.81 in 10.0 mi SW 10.4 mph - N/A   Clear
1:58 PM 73.8 °F 52.9 °F 48% 29.79 in 10.0 mi South 5.8 mph - N/A   Clear
2:58 PM 74.7 °F 53.8 °F 48% 29.77 in 10.0 mi SW 10.4 mph - N/A   Clear
3:58 PM 74.1 °F 54.3 °F 50% 29.77 in 10.0 mi SSW 10.4 mph - N/A   Clear
4:58 PM 72.3 °F 57.2 °F 59% 29.76 in 10.0 mi South 10.4 mph - N/A   Clear
5:58 PM 69.8 °F 59.2 °F 69% 29.76 in 10.0 mi SSW 9.2 mph - N/A   Clear
6:55 PM 66.2 °F 64.4 °F 94% 29.76 in 10.0 mi SSW 8.1 mph - N/A   Clear
6:58 PM 66.7 °F 64.0 °F 91% 29.76 in 10.0 mi SSW 8.1 mph - N/A   Partly Cloudy
7:58 PM 65.3 °F 65.1 °F 99% 29.77 in 10.0 mi South 5.8 mph - N/A   Partly Cloudy
8:58 PM 64.9 °F 64.9 °F 100% 29.79 in 10.0 mi South 4.6 mph - N/A   Clear
9:58 PM 64.4 °F 64.4 °F 100% 29.80 in 10.0 mi SSE 2.3 mph - N/A   Clear
10:58 PM 63.5 °F 63.5 °F 100% 29.79 in 10.0 mi Calm Calm - N/A   Clear
11:58 PM 62.6 °F 62.6 °F 100% 29.79 in 10.0 mi Calm Calm - N/A   Clear